Portada
METAR-TAF:

METAR-TAF

Aeroports :

Chatham Municipal Airport

Chatham, Massachusetts, Estats Units d'Amèrica

latitud: 41-41-15N, longitud: 069-59-36W, altitud: 20 m

Observació

L'informe es va fer fa 35 minuts, a les 23:52 UTC
Vent 3 kt del Oest/Nord-Oest
Temperatura 2°C
Humitat 37%
Pressió 1004 hPa
Visibilitat: 16.1 km
Cel clar

METAR: KCQX 042352Z AUTO 29003KT 10SM CLR 02/M11 A2965 RMK AO2 SLP041 T00171106 10056 20011 53010

Hora: 19:27 (00:27 UTC)


TAF: manca

Observacions i pronòstics meteorològics de més de 4000 aeroports (METAR i TAF).

Les estacions disponibles són els punts grocs i vermells al mapa.

Posi el ratolí al punt desitjat per veure el nom de l'estació.

Feu clic per veure les observacions i els pronòstics meteorològics.

Per canviar el mapa: feu clic els botons verds amb una creu de color negre per apropar; al botó verd amb un guió per allunyar la imatge; o en les fletxes verdes per a mapes adjacents.


METAR-TAF: